ZIYUAN 1-02C (ZY 1-02C)
Last updated on Mon Jun 22 2026 00:02:51 GMT+0000 (Coordinated Universal Time)
1 38038U 11079A 26172.53713726 .00000583 00000+0 20616-3 0 9995
2 38038 98.4066 239.7552 0005290 301.3280 167.3029 14.38218740759831
Next 0 passes for location: London (51.5072 / 0.1276)
No passes found over London.